Theta_e
317 317 316 316 317 316 316 316 316 317 317 318 318 318 319 319 320 321 321 322 322 323 323 323 325 325 325 325 326 325 323 326 319 319 317 322 329 333 334 336 336 336 332 323 313 311 309 310 310 311 312 313 312 312 311 313 311 314 304 302 300 302 301 305 302 303 306 304 304 303 305 304 302 304 305 307 305 305 307 306 308 309 308 310 309 312 323 330
317 316 316 316 315 315 316 316 316 316 317 317 318 318 318 319 319 320 321 321 322 322 323 324 324 325 325 325 326 324 324 324 317 313 318 327 330 333 335 334 336 335 327 316 311 310 308 307 309 310 309 307 313 310 312 309 312 307 304 303 300 304 305 307 306 306 304 304 306 305 305 305 304 305 306 303 303 304 304 305 307 307 308 310 309 310 319 328
317 316 315 315 315 315 315 316 316 316 316 316 317 317 317 318 319 320 320 321 322 323 323 324 324 325 324 325 324 322 324 322 314 309 318 329 332 333 334 334 335 333 319 316 313 312 310 309 309 309 308 306 309 306 310 308 309 307 307 301 302 308 305 307 306 305 306 306 305 305 305 305 306 306 308 303 303 305 303 304 305 305 306 308 309 310 318 326
316 316 314 315 315 315 315 315 315 315 315 316 316 317 317 317 318 319 320 321 321 322 323 323 324 324 324 324 323 326 321 318 306 311 321 331 331 333 333 333 334 330 322 317 314 313 312 311 310 309 306 305 305 309 305 307 306 307 303 302 303 305 304 305 306 305 305 306 306 305 305 304 305 306 306 304 302 303 305 307 306 306 307 309 310 310 317 324
316 315 314 314 314 315 314 314 314 315 315 315 316 316 316 317 317 318 319 320 321 322 322 323 324 325 324 325 320 325 325 302 304 315 322 329 330 332 329 330 329 319 316 316 313 312 311 309 308 308 306 303 305 304 305 305 307 306 303 304 304 305 303 304 305 304 304 303 306 305 302 303 307 305 305 305 301 302 305 307 309 309 310 310 312 311 316 320
316 315 314 314 314 314 314 314 314 314 314 314 315 315 316 317 317 318 319 319 320 321 322 323 324 324 324 323 326 327 310 293 310 319 324 326 328 325 326 330 326 317 314 313 313 311 309 308 308 304 304 303 302 300 304 306 306 300 303 304 304 304 304 304 304 302 303 304 304 304 305 306 304 304 306 305 304 306 308 309 310 310 310 313 314 315 316 319
316 314 314 314 314 314 313 314 314 314 314 314 314 315 315 316 317 317 318 319 320 321 322 323 323 324 323 321 326 320 309 308 313 324 327 326 325 321 327 326 328 315 314 313 312 309 309 307 307 304 304 303 303 304 303 304 306 303 302 303 303 304 304 303 303 301 303 303 304 305 305 303 304 301 306 304 307 309 309 309 309 309 308 310 314 315 316 319
315 314 314 314 314 313 313 314 314 314 314 314 315 315 315 315 316 316 317 318 319 320 322 322 323 322 321 327 316 310 307 309 318 323 324 324 320 316 321 316 315 316 314 313 311 309 308 305 304 306 303 301 302 303 304 303 304 301 302 303 303 304 304 304 303 303 302 303 304 304 303 304 305 304 304 304 307 308 309 309 308 308 308 307 312 315 315 317
315 314 314 313 313 312 312 313 314 314 313 314 315 315 315 316 316 317 317 318 319 320 321 322 322 321 319 320 312 305 303 318 322 321 321 317 316 314 318 317 315 314 313 313 312 311 308 306 307 306 301 302 305 303 303 302 299 305 304 304 304 304 304 303 303 303 303 304 303 302 303 304 304 304 302 305 307 309 310 309 308 308 307 307 308 313 314 316
314 313 313 313 312 312 312 311 313 314 314 314 315 316 316 316 316 317 318 318 319 319 320 322 322 320 318 319 308 299 314 320 321 320 317 315 313 313 316 316 316 314 313 312 312 311 309 308 307 308 308 304 306 304 304 303 301 305 304 304 304 304 304 303 304 303 304 304 303 303 303 303 303 303 301 307 308 307 308 307 308 308 307 308 308 309 313 315
314 313 313 313 313 314 313 313 313 313 314 314 315 316 316 316 317 317 318 318 318 319 320 321 322 321 323 315 302 299 317 324 321 317 315 314 315 315 316 316 314 314 313 313 312 311 311 310 311 310 310 303 305 303 305 303 305 305 305 304 303 304 305 304 304 304 304 303 303 304 303 304 304 303 302 307 307 307 307 307 308 308 308 308 309 309 311 313
315 314 313 313 314 313 313 313 312 313 314 315 315 316 316 316 317 317 318 318 319 319 320 321 321 321 316 309 303 308 315 319 317 316 317 318 313 313 314 313 314 317 315 311 313 314 314 311 312 308 302 308 301 304 303 305 305 304 305 300 302 303 303 304 304 304 304 303 304 305 303 301 302 300 306 307 306 307 306 307 308 308 308 309 310 309 309 310
315 315 314 314 313 312 313 313 313 313 314 315 316 316 316 317 317 318 318 318 319 320 320 321 321 322 318 302 312 317 319 318 316 315 315 316 314 314 314 314 314 314 315 313 312 313 312 312 310 306 308 307 304 300 305 307 305 305 304 303 301 301 300 304 305 304 303 304 304 304 294 299 302 305 307 308 307 306 306 306 307 308 308 309 309 310 310 310
317 316 315 314 314 313 314 314 314 314 315 316 316 316 317 317 317 318 318 318 320 321 321 320 320 317 311 303 313 317 319 320 316 315 316 315 315 317 316 316 314 314 316 311 310 311 312 311 312 309 310 306 302 307 305 304 305 301 302 303 299 298 297 303 304 303 301 303 303 304 295 299 304 306 308 307 306 306 305 307 308 308 309 309 309 309 309 310
317 317 316 316 316 315 315 316 315 316 316 316 316 316 316 317 317 318 319 319 321 321 321 320 321 314 303 307 313 317 323 319 314 315 317 316 313 313 312 313 312 312 312 312 310 310 311 313 310 306 304 306 307 304 301 301 302 303 297 295 300 299 300 301 303 303 300 301 304 302 296 298 303 305 305 305 305 305 305 307 308 308 309 309 309 309 309 310
318 317 317 317 317 316 316 316 316 316 316 316 316 316 317 317 317 318 319 320 321 320 322 325 318 312 304 300 314 324 319 312 311 317 316 315 316 313 315 312 313 313 313 310 313 312 313 312 307 306 304 305 303 302 300 300 299 301 298 298 297 298 299 299 300 302 301 302 303 302 297 302 302 305 304 304 305 305 305 306 308 308 309 309 309 309 309 310
318 317 317 317 317 317 317 317 316 317 316 316 316 317 318 318 318 319 320 319 320 319 322 312 310 307 298 307 310 309 310 315 314 318 315 313 313 314 313 312 310 310 312 312 313 313 311 308 305 307 306 303 303 302 298 296 296 297 299 297 301 297 298 296 299 302 303 301 300 302 298 300 303 306 306 304 306 305 305 306 307 308 309 309 310 309 309 309
318 318 318 317 318 317 317 317 317 316 316 316 316 317 318 319 320 319 319 320 321 314 313 312 312 307 299 303 302 304 312 313 315 310 313 311 313 312 312 310 310 311 311 309 311 308 309 305 305 301 303 302 302 300 295 292 295 296 297 296 297 298 298 297 298 300 301 301 299 301 300 300 302 304 306 307 307 306 306 306 307 307 308 309 309 310 310 310
318 318 318 318 318 318 318 318 318 317 316 317 318 318 317 318 323 324 314 311 306 301 298 301 300 294 293 301 309 311 314 311 315 315 310 312 312 313 313 313 312 308 306 304 305 306 308 306 306 302 297 298 298 299 298 298 298 297 300 298 297 296 296 295 298 300 301 299 298 299 297 299 302 303 305 306 308 306 306 307 307 307 307 307 308 309 310 311
319 318 318 318 318 318 318 318 318 316 316 317 319 318 317 310 309 305 310 308 305 302 305 304 304 302 301 306 310 312 314 315 309 311 314 312 312 311 311 311 311 310 305 301 304 305 307 301 297 296 298 300 301 301 301 300 300 298 299 298 296 297 298 300 299 300 300 298 298 299 299 300 301 303 304 305 306 306 306 305 306 307 307 307 308 308 309 310
319 319 319 318 318 318 318 318 318 315 315 318 317 313 300 302 298 297 302 303 309 305 306 305 306 305 306 310 311 310 307 307 312 310 313 314 311 310 306 308 305 301 303 306 304 304 305 298 298 300 301 302 302 302 301 300 299 298 297 297 296 298 294 300 299 299 300 297 298 300 300 300 301 302 303 305 304 303 304 305 305 306 307 308 308 309 310 310
319 319 319 319 318 318 318 318 316 315 314 317 315 306 303 307 311 311 308 297 303 308 306 308 308 306 308 310 313 313 313 305 307 310 314 313 309 305 305 305 302 298 304 304 302 300 298 296 299 302 302 302 301 301 301 299 298 298 296 297 297 297 300 299 299 298 299 298 296 299 298 299 300 302 303 304 304 305 306 306 306 306 307 307 308 309 309 311
319 319 319 319 319 319 318 318 317 314 316 314 310 308 307 315 315 315 310 305 301 305 304 305 302 304 306 309 311 311 305 302 302 308 309 312 307 306 305 302 301 300 301 301 297 297 294 298 301 302 302 300 299 299 300 299 299 298 297 296 294 300 295 293 296 298 298 297 296 298 296 297 300 302 303 304 304 305 307 307 307 308 307 307 308 308 309 310
319 319 319 319 319 319 319 317 317 316 316 313 312 310 317 317 317 314 312 299 298 300 303 305 305 304 305 303 310 309 304 304 306 304 313 310 305 308 305 303 301 301 299 300 298 297 296 299 299 302 301 300 298 298 298 297 296 299 299 298 296 298 298 296 296 297 299 299 298 297 296 297 300 300 302 306 307 307 307 308 308 308 310 310 312 312 312 310
319 319 319 319 318 319 318 316 314 316 315 312 310 316 316 319 316 314 307 298 296 299 305 304 308 307 307 310 313 305 305 304 306 311 312 310 306 303 303 306 303 299 299 301 299 297 298 299 302 299 300 299 299 296 298 299 294 297 301 299 298 298 297 297 298 297 295 295 297 298 290 292 298 301 302 304 304 304 305 305 306 307 308 309 308 309 311 313
317 319 319 319 319 318 317 313 316 316 312 312 312 317 317 317 316 311 304 294 290 298 300 295 307 299 312 304 310 308 304 298 307 310 311 311 311 306 303 301 303 297 299 300 298 299 298 298 301 300 299 300 299 297 300 299 296 294 296 301 300 298 298 298 296 297 291 289 296 298 289 287 296 296 298 300 301 302 305 306 306 306 306 307 309 312 311 312
317 318 319 319 319 318 312 311 316 315 311 313 316 317 315 315 317 312 297 291 286 299 294 303 299 301 310 306 306 303 290 294 308 309 310 310 306 309 300 299 300 301 303 302 296 294 298 298 299 301 299 299 298 295 300 300 296 293 298 300 298 298 298 298 297 297 294 299 300 295 295 288 289 295 300 301 301 301 302 303 305 306 307 307 308 309 311 312
317 318 318 319 319 317 318 316 313 312 312 313 316 315 317 315 316 310 295 282 282 303 297 296 301 308 308 307 308 298 299 303 297 303 307 309 308 305 302 299 298 298 301 300 289 302 299 298 298 298 298 297 296 300 303 301 296 297 298 301 300 298 300 299 298 296 296 293 289 294 297 290 289 295 300 301 297 299 300 302 304 305 307 308 310 311 311 311
315 317 318 318 318 318 318 317 315 314 313 315 314 316 315 317 311 300 290 281 299 297 309 296 309 305 304 305 299 300 299 301 298 304 308 307 308 305 298 301 302 301 302 300 293 298 298 300 300 301 298 296 299 297 300 301 296 298 300 301 300 301 300 300 296 296 295 291 287 293 296 287 289 296 297 301 299 298 300 302 303 305 307 310 309 309 309 308
314 314 318 318 318 316 316 316 315 314 315 315 315 314 313 310 301 290 285 278 301 290 299 299 298 297 301 296 296 298 297 299 302 303 306 303 305 307 302 305 302 300 299 299 300 298 298 299 299 300 299 300 298 298 299 300 300 301 302 301 300 299 299 297 297 294 291 286 289 295 296 292 286 294 296 298 300 300 301 302 304 307 308 308 308 310 311 309
313 313 314 317 313 315 316 312 316 314 315 316 315 314 310 301 291 286 279 288 297 298 297 296 296 301 296 294 292 297 298 299 301 302 299 303 301 303 302 299 304 300 298 298 297 299 298 298 299 300 299 300 301 297 300 300 302 303 299 296 296 294 296 294 292 293 286 284 290 292 295 295 285 293 298 301 301 301 302 302 302 304 306 309 310 308 308 308
313 313 313 317 319 318 311 311 315 314 315 314 312 308 300 286 290 282 283 295 287 294 294 293 298 297 296 298 297 294 294 299 300 300 298 297 298 296 297 293 296 289 289 291 291 298 295 297 301 299 300 300 299 297 296 299 300 300 297 295 289 286 288 284 289 284 285 284 289 291 292 290 290 294 297 300 301 302 303 303 303 304 304 306 310 310 309 310
313 312 313 317 316 315 317 314 313 315 313 312 306 304 291 285 277 287 289 292 288 298 294 300 296 296 296 296 295 295 299 293 300 299 301 300 298 298 300 297 299 295 287 293 292 291 293 300 299 299 298 299 301 294 292 291 296 296 294 291 287 283 283 281 285 287 287 288 288 291 295 287 293 296 300 300 301 303 304 304 307 306 306 306 308 311 309 310
312 312 313 314 316 318 316 314 314 315 311 309 300 295 288 282 281 294 292 293 294 296 298 297 296 297 296 293 296 297 292 297 298 298 300 297 297 295 297 298 299 296 296 296 290 291 286 288 294 297 293 300 299 298 298 296 295 295 299 295 290 288 284 281 284 282 283 286 286 291 286 287 287 292 299 302 303 304 304 303 305 306 306 308 309 310 310 309
312 313 313 314 314 317 315 314 314 316 312 306 297 288 281 282 288 287 289 294 295 297 295 299 295 295 294 296 297 297 297 293 299 298 297 296 293 295 295 295 299 300 298 290 294 291 290 290 299 301 301 300 298 302 302 299 297 298 299 300 292 289 294 285 287 286 286 286 286 285 286 293 294 301 301 303 302 302 303 303 304 305 305 307 307 308 309 308
311 310 311 309 310 314 315 314 314 314 309 302 292 285 282 287 285 296 293 301 297 295 294 296 296 292 292 293 296 295 297 297 296 297 295 296 297 294 299 299 297 299 296 290 294 288 292 288 298 299 299 298 299 302 300 303 287 295 297 291 294 298 296 289 286 288 285 285 283 290 289 293 298 298 299 300 300 300 302 303 303 304 305 308 309 311 309 310
306 307 304 308 309 315 315 315 314 311 307 300 291 285 288 288 296 297 301 297 299 299 295 290 291 291 290 290 292 293 295 297 296 295 291 298 294 297 297 299 302 299 299 297 293 298 290 290 292 297 294 298 297 300 301 299 303 298 290 295 300 302 299 291 284 286 284 281 283 289 286 287 289 286 300 299 299 299 300 301 302 303 305 306 310 312 311 312
304 304 303 305 309 316 316 316 313 310 302 296 288 290 296 291 299 300 302 299 296 299 294 291 293 296 291 291 291 293 296 292 293 294 292 295 290 301 298 298 302 300 300 301 294 297 298 288 292 295 297 297 298 299 297 301 299 298 295 304 292 286 285 290 287 280 280 281 283 287 288 289 291 290 295 296 296 298 300 302 302 302 303 305 307 309 311 311
304 302 297 305 310 316 315 316 310 304 296 289 288 288 296 297 301 299 301 300 298 293 292 294 292 294 295 292 294 295 295 289 294 292 290 294 289 298 297 300 299 302 302 300 295 297 298 288 290 291 294 297 297 296 288 293 299 300 301 296 301 294 290 287 287 287 286 281 282 283 287 285 294 294 296 296 298 299 299 300 301 302 303 304 306 311 309 309
298 295 293 311 314 316 315 313 305 300 294 287 290 292 300 296 299 301 301 299 293 293 293 294 295 292 294 295 296 292 295 294 294 293 293 296 293 301 297 302 298 300 301 301 297 300 292 295 286 291 294 295 288 293 291 294 290 290 292 291 294 292 297 293 294 288 286 283 283 283 282 287 295 299 298 299 299 300 300 301 304 306 306 307 309 309 309 309
300 295 295 311 314 315 313 306 298 292 291 295 297 296 298 296 299 299 300 302 300 301 297 294 296 291 295 292 291 297 294 294 295 293 293 295 294 291 300 300 301 299 300 299 298 298 290 292 286 290 288 289 292 298 297 298 296 294 292 290 292 290 288 284 283 295 289 286 283 283 281 289 297 301 300 299 300 301 302 303 304 305 305 309 311 310 310 310
294 286 292 310 313 313 305 295 295 297 294 292 292 297 296 301 299 298 298 300 301 297 300 297 298 296 295 294 296 293 293 292 294 294 295 293 297 296 299 301 301 301 298 294 295 300 297 296 290 288 289 291 295 296 297 295 299 298 296 293 296 294 293 288 282 286 288 288 290 288 285 287 299 300 300 300 301 302 303 303 304 306 307 307 309 309 309 309
292 289 304 309 313 309 301 293 296 294 292 296 301 300 301 298 298 300 297 298 296 299 298 296 297 295 297 295 295 293 295 291 293 290 294 295 296 299 303 300 301 300 300 297 299 300 296 291 288 289 294 295 294 298 298 297 298 296 297 299 297 292 294 291 290 289 288 288 286 286 283 287 298 302 301 301 302 302 302 302 303 304 306 308 308 309 309 310
292 292 296 305 310 308 298 287 287 290 293 297 297 296 301 299 298 297 297 298 296 296 296 296 298 300 297 299 297 292 295 287 294 293 292 296 294 301 301 300 300 298 297 296 294 299 290 291 290 286 286 288 291 293 294 297 296 293 293 296 297 298 298 296 291 291 287 288 289 286 281 287 297 301 301 300 300 300 301 303 303 304 306 307 308 308 309 308
293 294 296 300 305 302 292 294 291 291 292 292 292 292 295 296 300 299 298 297 299 298 297 296 298 300 298 300 297 297 297 293 289 296 296 297 295 301 300 301 301 298 302 302 298 302 291 291 289 283 280 279 279 281 283 286 289 293 295 296 297 296 295 293 287 289 285 288 290 286 286 292 297 299 298 298 299 300 302 304 302 305 304 305 306 308 309 308
288 282 290 294 297 296 297 299 296 293 291 291 290 292 294 292 298 300 300 298 300 300 299 299 300 300 297 297 295 294 294 297 294 291 294 293 296 298 300 299 300 299 297 296 295 298 288 291 292 289 286 285 288 291 296 296 292 287 291 292 294 296 296 295 292 288 285 289 287 290 290 291 294 296 297 299 297 299 300 302 303 304 305 306 308 309 308 307
292 285 287 285 294 293 292 296 294 295 291 294 287 291 289 291 294 296 301 295 299 298 298 298 297 294 294 294 293 294 296 295 296 295 295 295 297 298 295 297 298 298 296 296 297 293 288 287 291 292 291 292 294 293 297 296 292 293 292 292 294 294 294 291 289 287 293 288 284 292 294 290 292 295 297 298 299 300 301 301 302 305 306 308 309 308 302 304
285 288 291 294 288 285 286 288 293 293 295 295 290 294 291 290 292 290 297 298 300 300 295 296 297 296 296 294 295 290 293 294 295 292 296 297 297 297 296 295 294 295 296 298 300 295 289 287 291 291 289 293 294 294 294 294 294 294 294 294 293 294 293 288 289 293 293 288 286 292 294 292 294 296 298 299 300 300 301 302 303 304 305 305 306 305 306 308
292 292 291 295 288 291 291 292 293 292 291 292 291 292 290 290 289 292 293 294 295 295 297 290 293 295 296 297 295 291 293 288 289 294 293 293 295 295 292 295 297 297 296 297 296 296 292 288 291 292 289 291 292 293 293 292 292 293 293 294 295 295 294 293 293 294 293 292 293 293 294 294 296 297 299 300 302 303 303 304 304 304 303 304 304 304 306 306
287 287 287 293 293 291 292 293 292 291 288 291 288 290 291 290 289 292 295 294 290 292 297 292 293 295 296 296 295 291 293 295 294 292 297 295 291 296 294 295 292 291 293 292 295 295 292 288 292 292 288 288 291 293 294 293 292 290 292 293 294 294 295 295 294 294 294 293 294 294 293 293 298 300 301 302 303 303 303 302 302 303 303 303 303 303 304 306
296 295 295 289 285 288 290 291 290 289 287 290 288 290 291 291 290 293 293 296 294 292 294 292 294 295 296 295 294 294 297 297 297 297 299 298 292 298 294 293 298 290 292 287 291 291 290 288 294 290 286 286 290 291 292 293 291 289 290 291 292 292 290 293 292 295 293 291 293 293 290 291 297 301 302 302 302 302 301 302 303 303 304 303 303 303 304 304
297 298 296 293 285 289 287 289 290 289 285 289 290 290 290 290 293 294 290 296 297 297 297 296 296 294 293 293 293 295 298 299 300 299 298 299 300 299 301 300 300 295 290 290 291 289 289 288 287 288 285 285 289 292 290 289 288 285 286 290 293 294 294 295 296 297 296 296 291 288 290 296 299 300 299 300 301 302 302 302 303 303 304 304 303 304 304 304
Wind_Speed
7 6 6 5 3 3 3 2 2 1 1 1 2 2 3 3 4 4 5 5 5 5 6 7 7 7 8 8 9 9 9 4 4 5 8 4 3 6 6 6 6 7 4 5 5 6 6 6 6 4 4 5 2 3 1 1 1 2 5 6 7 5 6 4 5 4 5 2 8 10 10 9 8 6 5 3 4 7 2 5 5 2 3 1 7 6 7 9
7 7 5 5 4 4 3 3 1 1 2 2 2 3 3 3 4 5 6 6 7 6 6 7 8 8 8 8 8 8 6 4 6 5 3 4 6 6 6 6 6 5 4 5 7 6 4 5 4 6 5 4 2 2 3 3 1 5 5 5 6 6 3 2 2 3 2 1 7 9 9 8 4 10 7 7 7 9 8 8 7 7 8 7 8 8 8 10
8 6 6 4 4 4 3 2 1 1 2 2 3 3 4 4 4 5 6 7 7 7 7 8 8 8 8 8 8 6 3 5 5 5 3 6 6 7 6 6 6 3 5 5 4 5 4 3 5 6 3 4 2 4 5 3 3 1 4 5 7 4 5 4 3 4 5 3 4 7 7 7 4 4 7 8 7 8 10 7 9 9 9 12 10 9 10 10
8 7 6 5 5 4 4 3 3 2 2 3 3 3 4 4 5 6 6 7 8 8 9 9 9 8 8 8 7 5 3 3 7 5 4 7 7 6 6 7 6 7 7 7 5 4 1 3 4 5 4 4 4 3 7 4 4 3 4 6 3 3 2 4 3 5 5 5 2 5 5 8 4 4 6 5 9 9 8 9 8 10 10 12 12 12 11 11
7 7 6 6 5 5 4 3 3 3 3 3 3 4 4 5 6 7 8 8 9 9 9 10 10 9 9 7 7 3 3 5 4 3 6 6 7 7 6 6 6 6 7 5 4 3 5 5 5 3 5 4 4 5 2 5 3 2 4 5 3 1 1 5 3 4 4 4 1 4 7 7 5 2 7 8 8 7 3 6 11 9 4 8 13 12 11 12
9 7 7 6 6 5 4 4 3 3 3 3 3 3 5 5 6 8 9 9 10 10 10 10 11 10 10 8 5 4 3 4 2 2 4 6 5 5 5 5 6 7 4 4 4 4 6 6 7 5 5 4 7 6 6 2 1 5 4 1 3 4 3 3 2 3 3 0 2 5 2 4 5 5 8 10 12 5 7 8 9 8 7 6 9 12 11 12
9 6 8 7 6 5 5 4 3 3 3 3 3 3 4 5 6 7 8 9 10 10 11 11 11 11 11 8 3 5 7 2 2 3 2 5 4 3 5 5 5 4 4 5 5 6 6 6 8 5 4 2 5 1 4 4 2 5 1 5 4 3 3 2 3 2 0 3 1 4 3 5 4 10 3 8 12 13 4 6 6 5 4 3 9 10 12 13
10 9 7 7 5 5 5 4 3 2 3 3 3 4 4 5 6 7 8 9 10 10 11 11 11 11 11 4 3 5 7 2 4 2 3 3 4 1 4 4 4 3 5 4 4 6 5 7 7 4 5 3 6 5 5 5 4 7 3 4 4 1 3 3 2 2 0 1 3 2 4 5 4 4 4 11 12 10 8 5 5 3 2 3 7 9 10 11
10 10 9 7 6 6 5 5 4 3 3 3 4 3 4 4 5 6 7 8 9 10 10 11 11 11 6 4 5 5 5 3 3 4 4 3 3 1 3 2 3 5 1 2 3 3 6 4 2 5 2 4 3 5 5 4 6 3 3 5 5 4 4 3 4 2 1 1 1 3 5 2 1 4 10 15 12 3 1 4 5 6 5 6 7 9 10 10
10 8 8 7 7 6 6 5 5 5 3 4 5 4 3 4 6 7 7 7 8 9 10 10 10 10 5 5 4 7 3 5 1 2 3 3 3 3 3 3 3 2 3 1 3 4 5 1 1 5 4 7 4 4 3 4 3 1 6 4 4 5 4 2 3 4 1 1 2 4 5 4 2 4 6 4 1 3 4 8 8 7 10 10 9 9 10 11
8 8 9 9 8 7 6 6 6 6 5 6 6 6 6 5 6 7 7 7 7 8 9 9 9 9 4 7 7 5 2 2 2 2 3 2 3 1 2 4 3 3 1 2 2 5 3 1 2 3 3 4 5 5 1 3 2 3 6 6 5 4 2 4 4 4 4 3 3 4 6 2 5 4 13 3 3 3 4 7 8 9 10 9 11 10 10 10
10 9 8 8 8 7 6 6 5 6 6 6 6 6 6 6 7 7 7 6 7 7 8 8 9 4 5 6 7 2 2 3 3 2 1 2 3 2 3 3 4 4 4 1 3 4 4 3 1 1 1 8 4 7 4 2 0 5 4 6 6 5 6 7 6 4 4 1 2 1 7 11 9 11 16 8 6 4 4 6 6 8 8 9 10 9 9 9
11 9 7 7 6 6 6 6 5 6 6 7 7 6 6 7 7 7 6 7 4 7 7 7 7 3 3 8 3 1 3 1 1 1 5 4 5 3 2 2 2 3 5 2 4 3 4 4 5 3 4 2 6 0 5 2 3 3 5 5 5 6 8 8 4 2 4 2 2 1 6 6 13 20 10 8 6 5 7 9 9 9 9 8 8 8 9 9
8 9 7 7 7 6 6 6 4 6 6 7 7 7 7 7 7 6 6 7 8 7 6 6 2 3 4 0 2 2 3 1 2 2 3 0 1 3 3 3 4 5 6 9 5 2 2 3 1 7 4 3 4 3 7 4 3 5 4 3 5 6 5 7 5 5 6 4 3 2 6 7 2 5 8 5 5 6 9 10 10 10 9 9 9 9 9 9
9 9 9 7 8 7 6 5 5 5 6 7 8 8 8 8 8 8 7 7 6 6 6 5 3 2 7 3 2 3 2 5 2 3 3 2 6 6 5 6 8 8 7 6 4 1 1 2 4 6 4 2 8 6 6 5 5 3 5 6 6 6 5 5 3 4 8 3 5 5 7 10 12 4 4 4 3 5 8 8 9 9 8 8 9 10 10 10
9 8 9 9 8 8 7 6 6 6 7 7 8 9 9 9 8 7 6 7 7 7 4 4 3 3 4 6 3 0 2 4 4 3 2 3 4 3 6 7 6 5 5 5 2 1 1 4 3 4 6 3 6 5 6 5 5 6 7 3 6 7 4 5 4 2 1 4 5 10 7 4 2 7 5 4 4 6 6 6 7 8 10 9 9 9 9 9
10 10 10 8 8 8 7 7 6 6 6 7 9 10 10 9 8 6 6 4 3 3 3 1 2 1 5 3 1 4 4 2 1 1 1 2 3 6 7 6 5 6 6 4 2 2 2 2 1 1 2 5 5 6 6 6 6 7 7 7 4 8 6 5 5 2 2 5 6 10 9 12 11 5 6 8 8 6 7 10 12 11 9 9 9 9 9 9
11 10 10 9 9 7 8 7 7 6 7 9 10 9 8 7 7 6 5 5 2 3 4 2 3 3 3 1 4 4 3 5 2 2 2 1 2 2 2 4 4 6 6 7 2 3 0 2 3 3 5 6 6 6 7 7 7 6 8 8 5 6 7 4 3 5 4 5 8 8 12 14 15 15 15 11 10 10 12 13 13 13 12 12 11 10 11 10
9 8 9 9 9 8 7 7 6 5 7 11 12 10 8 8 5 5 2 3 3 4 4 6 6 9 1 9 7 6 2 2 1 2 5 4 1 1 2 3 6 7 6 5 5 3 2 2 3 3 7 8 9 10 8 4 5 5 6 7 6 5 7 9 3 4 2 6 7 10 11 11 13 14 14 13 13 14 14 13 12 12 12 13 13 14 12 11
10 9 8 7 6 7 6 6 4 4 6 8 3 3 3 4 4 4 4 3 6 2 4 2 7 6 7 5 6 4 2 3 4 2 4 2 2 6 5 4 4 4 4 5 6 3 2 5 7 7 7 9 9 10 5 4 2 4 3 3 4 5 2 5 5 3 1 4 10 12 14 14 15 15 15 15 14 15 16 15 13 12 12 12 13 14 14 15
11 11 9 7 7 7 7 5 3 2 5 5 4 4 5 9 8 7 8 4 3 1 4 4 6 4 5 6 7 9 8 3 3 5 3 1 5 7 6 7 6 6 4 3 3 2 4 6 7 9 2 2 4 3 2 1 2 5 3 4 5 4 6 3 3 2 2 4 4 4 9 14 14 14 16 15 15 17 16 16 16 15 14 13 15 16 15 14
10 10 9 9 8 8 6 4 0 2 4 4 4 4 5 4 4 3 2 6 4 1 1 3 2 4 2 3 2 3 4 5 5 5 3 3 7 7 9 8 8 8 6 5 5 4 5 7 7 2 6 4 4 1 2 6 6 4 6 4 5 5 2 4 3 1 2 3 8 6 9 14 13 14 16 16 16 16 14 14 15 14 15 14 14 15 14 11
11 10 10 9 9 7 6 4 2 2 4 3 5 6 3 4 2 1 3 4 4 1 3 4 3 6 4 2 2 2 6 6 8 8 8 5 8 5 8 9 9 5 7 9 7 6 6 8 5 6 5 5 3 3 4 5 5 5 6 6 6 3 2 3 3 1 3 4 6 7 11 15 16 15 18 18 16 16 15 13 14 13 15 17 17 14 11 11
12 11 11 10 8 8 6 4 1 5 2 4 6 5 3 1 3 4 4 3 2 4 4 3 4 4 8 4 6 7 8 3 4 11 5 7 9 3 4 10 10 7 8 10 11 8 6 4 4 3 4 5 5 5 6 6 7 7 7 6 7 3 2 4 2 3 4 8 3 7 9 12 12 13 10 7 9 11 11 10 11 12 13 15 12 10 10 13
7 12 11 10 8 7 6 4 4 2 2 4 6 3 2 2 1 3 3 3 3 2 2 1 3 4 4 2 4 7 2 1 1 5 7 10 7 4 6 2 4 9 9 10 10 9 5 4 5 5 3 5 6 6 8 7 8 6 9 10 9 4 4 1 3 7 4 5 3 4 5 6 6 8 9 7 4 8 9 10 12 11 12 12 12 12 10 11
2 10 11 11 10 10 8 3 4 3 3 4 1 2 2 2 2 2 2 4 6 5 2 7 7 5 6 7 6 3 4 6 4 2 5 1 5 4 5 5 1 6 10 6 7 5 1 3 3 5 5 4 6 7 7 8 7 7 2 2 8 8 3 3 5 3 4 3 3 4 3 7 9 16 16 12 12 13 8 11 13 12 13 12 10 7 8 9
7 6 9 12 13 12 4 2 5 5 3 3 4 3 2 1 1 3 3 3 7 8 9 3 2 2 2 8 10 5 7 7 4 5 4 3 5 2 6 6 4 2 3 3 2 6 5 5 4 3 6 6 5 6 7 9 7 7 3 2 0 2 4 4 3 4 6 4 4 5 4 7 10 15 14 11 9 10 12 14 14 12 12 11 9 8 6 5
9 1 11 15 16 16 2 3 5 4 3 3 1 2 2 0 2 3 3 6 5 8 6 3 1 2 2 5 6 10 5 11 7 4 5 1 3 4 5 7 10 9 7 6 10 3 6 7 8 9 8 7 8 1 2 11 8 2 2 2 4 3 2 1 2 3 3 4 6 5 5 4 8 10 14 4 8 10 13 13 12 13 11 9 7 4 2 2
10 6 10 14 16 8 4 2 3 0 4 2 2 0 2 1 3 3 4 7 3 3 4 6 2 4 6 6 4 4 5 2 2 5 2 2 4 2 9 7 7 7 10 10 9 4 3 1 5 8 7 8 4 4 4 4 8 3 3 5 6 5 4 1 2 3 3 5 8 6 8 5 13 7 11 6 6 10 12 12 11 7 3 3 2 1 1 1
9 11 7 15 10 3 3 2 3 2 1 2 1 1 3 1 3 7 7 8 6 6 2 3 6 10 12 12 9 4 6 2 3 5 7 5 6 2 4 5 2 5 5 1 3 4 2 1 4 2 6 1 7 7 4 5 6 8 5 5 4 2 1 1 0 2 3 7 8 11 12 6 10 4 10 8 5 7 7 4 3 6 6 5 4 4 2 1
10 8 8 14 8 4 4 4 2 1 1 1 1 2 2 1 5 9 10 4 3 3 3 7 5 11 15 15 10 6 3 5 7 11 7 3 6 4 5 4 0 3 1 3 7 4 2 3 3 1 4 4 6 7 5 2 4 5 4 4 3 2 2 3 3 1 3 7 3 4 4 6 8 2 3 5 3 2 1 0 5 5 5 6 5 4 3 2
9 8 8 7 3 6 7 2 4 3 2 2 2 2 4 5 2 9 6 7 4 8 10 8 7 10 16 14 7 12 10 7 10 10 11 10 9 10 11 9 8 4 6 8 7 5 6 7 4 5 3 5 6 7 4 3 3 3 6 5 3 2 2 4 3 5 8 8 3 1 2 3 18 10 1 3 4 3 4 4 5 6 7 2 4 6 4 3
8 8 6 2 3 4 2 2 4 5 6 6 7 4 2 3 9 9 8 9 3 5 4 4 10 12 13 13 8 10 7 10 9 8 9 10 10 11 14 13 13 11 8 9 8 5 4 4 6 4 3 6 8 8 6 4 7 8 9 8 6 6 7 8 7 4 3 3 1 2 2 8 15 11 10 11 9 8 4 3 4 6 10 9 6 4 6 5
7 6 1 2 3 2 4 5 3 5 8 5 8 5 6 4 7 9 10 8 0 3 7 5 10 7 14 11 10 12 6 5 12 7 9 9 11 10 10 15 12 13 5 2 10 8 7 4 10 11 5 12 11 11 10 7 13 12 9 11 8 6 4 7 5 7 5 3 3 4 1 6 1 2 5 2 3 4 4 4 6 8 8 9 7 6 5 6
8 3 3 1 2 2 5 5 5 4 6 6 5 5 10 9 2 7 10 5 3 3 4 8 10 10 10 7 2 12 1 5 9 9 9 10 11 10 12 13 14 10 7 8 7 4 15 11 5 17 3 19 16 13 9 7 6 9 7 6 8 11 7 10 2 3 3 1 2 4 7 4 7 7 4 3 3 7 4 6 7 7 6 5 6 7 7 6
6 0 2 1 2 2 6 7 7 6 7 6 6 4 12 9 5 5 5 4 4 6 8 9 8 9 9 8 3 10 2 1 9 6 8 11 10 12 12 10 14 19 12 12 6 9 3 9 8 5 3 17 12 5 10 7 7 8 6 7 9 7 4 4 2 3 1 2 10 4 8 13 9 16 19 19 15 13 11 9 6 6 7 5 6 8 2 3
4 4 4 2 2 4 6 7 6 6 6 7 6 8 8 3 4 2 1 4 1 9 10 10 8 10 11 9 7 11 7 4 8 8 8 7 9 12 12 13 12 18 19 13 8 7 7 2 2 7 8 2 4 4 0 5 3 7 8 9 6 3 5 4 7 2 4 9 8 4 11 15 5 10 8 5 9 7 7 9 10 10 9 8 7 6 5 5
5 5 6 7 3 6 7 7 8 4 3 3 7 3 7 7 8 9 2 2 2 7 8 10 5 10 9 10 10 12 11 11 11 10 8 13 5 13 14 10 13 15 21 17 10 3 5 9 5 2 3 5 1 1 2 2 4 3 2 3 7 5 6 8 3 8 8 9 7 10 15 14 13 17 6 5 7 3 6 8 8 9 8 7 6 7 4 2
3 5 6 7 7 8 8 8 8 8 7 4 3 5 8 9 7 14 8 4 4 3 5 6 6 7 5 10 7 12 14 10 13 11 9 9 8 11 16 12 9 14 14 16 12 3 4 8 3 2 1 5 5 8 9 10 4 0 0 2 1 2 6 8 9 3 4 10 6 10 12 11 11 14 11 14 13 12 11 7 7 5 6 6 4 3 3 4
4 3 6 4 5 9 10 8 6 6 4 7 7 9 4 8 5 8 7 10 4 6 6 2 4 1 5 3 4 9 11 13 12 10 12 9 9 7 11 13 9 11 15 16 11 6 6 6 10 5 3 5 6 10 13 11 10 5 5 8 4 4 3 5 3 9 8 7 9 8 12 10 10 7 9 8 7 5 2 2 2 2 5 5 2 2 3 3
4 5 2 5 8 10 11 5 4 7 6 5 8 8 6 5 6 8 11 11 4 1 3 6 3 5 0 0 3 0 6 10 9 9 10 8 12 5 7 8 8 7 10 12 13 8 4 8 10 6 4 8 8 10 13 12 15 13 14 15 14 11 7 8 9 5 3 6 6 7 12 10 10 1 5 8 5 4 3 3 4 7 6 2 2 1 1 2
7 5 3 6 10 14 11 10 6 5 4 9 11 11 8 3 5 8 9 9 9 5 2 2 5 6 3 2 0 3 0 2 3 5 7 9 10 11 4 4 6 11 10 8 12 13 9 4 8 8 10 11 7 4 2 4 3 7 11 12 14 12 11 9 11 6 2 6 4 4 7 14 10 4 1 2 4 4 2 2 5 4 4 5 3 3 3 4
8 7 5 1 9 15 10 9 7 7 6 8 6 8 5 4 8 9 11 11 9 7 7 8 10 9 9 9 7 3 3 0 2 5 2 4 8 8 4 4 4 10 7 3 4 3 5 4 5 10 5 5 4 4 4 0 1 7 8 6 8 13 13 10 6 1 5 5 7 8 12 11 15 2 4 1 3 1 2 3 5 5 4 4 5 6 6 5
7 8 3 2 5 11 12 12 12 13 12 11 11 8 8 8 9 10 9 12 9 9 11 9 10 14 9 12 7 8 7 2 5 6 6 5 6 5 7 5 9 5 7 5 6 7 6 5 8 6 6 4 6 4 5 2 4 7 10 10 8 7 8 4 2 1 6 9 11 9 13 9 14 4 3 3 3 3 6 5 4 4 4 4 5 4 4 4
5 4 4 3 2 8 11 10 12 12 15 14 11 13 12 9 8 12 11 12 10 8 9 11 11 11 12 10 11 9 9 12 2 9 12 6 7 4 2 7 8 6 4 3 4 3 2 2 8 9 11 12 11 9 10 10 9 5 6 9 11 13 12 4 7 5 10 7 16 12 13 14 19 8 3 4 4 6 6 3 3 2 5 5 5 5 4 5
8 6 6 7 4 1 6 4 4 10 12 15 14 15 15 13 8 11 13 13 13 9 10 7 10 11 13 12 12 12 12 13 11 4 8 8 8 1 1 4 7 5 4 7 5 4 2 1 1 6 10 11 9 2 5 8 9 8 10 13 12 10 13 12 5 8 12 11 14 13 13 16 22 21 16 7 3 8 6 5 5 5 5 4 3 3 3 4
5 8 8 9 7 8 6 9 10 7 11 13 12 11 17 18 12 8 13 8 13 12 7 9 8 11 11 13 13 13 15 14 16 13 12 12 8 4 3 1 2 4 7 5 2 5 2 2 7 8 13 14 14 11 3 7 7 12 13 12 15 14 13 11 11 15 14 9 18 13 16 16 21 23 21 21 18 10 8 11 11 6 4 2 1 2 4 7
8 9 8 7 8 9 10 10 14 16 12 13 11 9 14 16 16 12 9 12 9 15 9 7 10 14 12 16 12 11 14 17 15 16 16 14 8 4 2 3 3 4 8 4 5 6 5 8 12 10 14 16 16 16 16 14 11 10 12 12 14 15 13 13 14 18 17 13 17 13 14 16 20 22 23 20 17 17 18 15 12 11 1 1 4 6 6 7
9 4 9 6 7 8 13 6 15 17 16 16 10 13 11 15 18 16 10 11 12 11 14 9 16 17 16 15 14 11 13 12 12 15 8 6 13 6 3 1 2 4 6 2 6 3 6 8 11 11 15 16 18 19 19 19 16 15 16 17 14 14 16 18 20 21 22 20 18 19 21 24 20 24 25 19 16 15 15 12 11 11 10 11 13 14 13 15
11 10 7 7 7 7 9 13 9 13 14 14 11 14 14 15 16 16 13 12 11 13 13 18 17 17 18 17 17 14 14 14 10 11 11 11 4 7 7 8 2 2 2 7 6 2 6 7 12 9 9 15 19 19 17 16 18 19 17 15 14 11 13 18 19 20 20 20 20 20 24 25 23 22 20 20 19 16 14 13 11 12 12 12 14 15 14 15
5 8 4 6 8 8 7 11 12 13 11 11 13 14 14 17 17 14 14 14 15 11 15 19 18 16 16 18 19 19 14 13 15 17 12 10 10 6 7 2 11 4 4 1 0 1 3 3 1 1 8 11 13 15 18 16 13 14 14 13 16 20 21 17 15 13 12 15 19 20 19 19 23 17 15 21 17 16 17 16 15 13 15 15 16 16 15 17
7 2 1 4 8 8 7 8 13 11 13 11 13 18 15 20 15 12 12 9 10 11 12 15 15 12 13 16 19 19 16 9 5 6 6 3 3 5 4 5 4 1 4 6 4 4 7 3 5 4 9 11 14 13 12 10 8 11 14 18 23 23 20 16 14 14 19 20 17 15 17 19 21 17 14 18 17 13 15 13 14 16 17 15 16 16 17 19
Wind_Direction
191 196 202 205 175 214 220 224 245 310 284 337 344 348 359 355 0 358 354 351 347 348 335 334 342 346 348 347 345 345 327 258 191 204 219 64 0 354 335 321 319 313 307 274 225 222 196 177 160 188 177 203 82 174 122 77 4 229 209 229 226 250 221 158 234 199 32 208 140 169 177 191 167 165 172 164 211 236 173 218 184 190 211 109 116 111 125 130
186 198 201 201 211 217 208 219 198 291 314 321 341 328 334 349 355 348 347 343 340 338 338 333 335 343 345 341 343 339 311 248 223 216 42 24 5 343 331 318 314 315 296 239 210 217 193 173 154 191 178 157 232 96 214 117 307 208 218 229 246 221 61 37 295 48 275 18 150 168 181 203 185 167 154 208 204 203 222 225 207 213 212 159 139 137 152 149
199 196 207 194 214 219 228 221 249 266 301 307 317 339 322 340 338 342 337 334 334 336 334 334 335 335 341 341 338 322 294 226 232 191 79 29 354 339 330 319 302 299 265 297 267 261 273 146 163 197 199 141 213 146 232 107 252 223 263 216 240 46 74 52 26 80 41 358 158 160 170 217 102 186 132 218 226 194 225 225 201 226 214 192 173 156 153 163
197 205 209 207 216 220 222 226 250 278 275 315 307 319 326 331 332 332 332 329 331 335 334 331 330 334 330 332 344 300 260 237 220 106 69 21 352 335 328 315 300 270 264 258 281 256 243 164 174 229 168 214 131 142 191 120 231 107 232 246 13 21 209 84 67 67 51 357 174 158 143 202 156 191 178 200 239 228 235 240 232 214 219 197 169 166 162 168
191 201 210 214 222 221 226 244 250 266 286 280 324 305 327 327 328 324 329 327 328 329 332 328 328 329 329 327 314 239 239 250 133 70 42 5 344 338 324 312 294 280 249 271 230 200 206 177 179 194 211 148 157 178 148 115 356 195 230 36 349 18 243 66 79 51 27 353 196 130 165 203 118 192 220 227 229 233 250 226 217 239 260 146 155 166 170 177
199 191 212 216 220 225 230 238 254 259 272 297 295 315 304 321 320 324 320 327 323 326 327 328 327 326 324 326 275 233 249 222 51 87 3 353 336 330 314 288 290 293 223 218 236 184 194 186 186 179 200 179 171 197 124 102 121 232 147 131 52 17 9 60 85 58 316 272 156 187 119 85 190 224 215 229 234 240 59 32 41 52 63 127 154 156 175 182
173 194 210 207 220 222 231 233 242 270 286 276 286 295 304 308 313 310 315 316 322 321 325 325 326 326 324 306 236 239 238 55 196 102 56 329 317 312 293 258 260 261 256 245 204 197 207 187 217 186 194 137 158 171 113 143 192 277 75 136 91 20 49 36 49 49 202 291 286 26 11 239 201 240 159 235 238 247 79 77 67 67 84 130 163 176 184 189
168 188 213 202 207 228 237 239 239 241 276 285 276 285 305 297 302 302 305 311 314 314 321 323 326 326 332 248 213 206 224 112 89 144 31 311 288 335 219 264 247 238 248 269 218 210 204 200 206 162 208 222 148 178 128 166 200 227 192 149 99 97 87 74 66 127 125 254 342 279 241 240 223 277 10 250 246 241 239 136 135 123 119 162 198 192 196 198
175 178 206 202 209 224 239 242 254 252 270 283 280 273 289 298 290 297 295 300 304 311 314 320 323 326 309 274 238 233 178 57 12 347 337 337 336 21 194 212 184 251 240 235 288 308 221 176 230 203 192 161 146 137 170 203 189 238 95 119 129 116 105 100 121 124 172 86 241 215 237 133 248 349 264 259 254 248 180 181 205 199 204 205 211 207 203 203
174 187 203 208 214 222 230 234 253 260 254 270 279 282 280 292 296 303 304 301 300 305 311 314 328 326 296 225 190 235 79 302 327 335 343 320 306 265 195 350 320 250 238 91 226 246 241 142 271 145 79 67 167 98 56 266 24 81 126 127 135 120 133 165 184 146 178 180 185 252 238 176 130 227 262 211 76 104 223 239 236 221 229 226 220 215 211 210
175 195 199 206 211 216 224 222 234 248 255 262 270 281 290 288 292 297 303 301 299 297 307 316 327 318 241 239 222 203 16 267 0 346 3 306 316 334 21 342 329 264 132 125 49 349 345 219 103 115 253 120 142 111 299 52 69 136 124 125 122 152 177 155 185 155 193 165 220 267 271 182 182 199 242 204 133 126 203 232 230 228 237 236 227 221 214 214
176 194 196 201 206 213 219 227 233 250 256 260 270 280 286 288 293 300 301 306 294 301 306 312 324 304 275 242 233 29 306 1 341 2 46 354 58 34 338 319 312 325 314 139 71 31 347 89 199 173 102 154 131 121 98 135 329 136 189 187 162 170 203 179 198 164 240 160 232 312 280 256 194 230 234 208 157 171 201 235 230 232 238 236 235 222 213 213
191 186 186 192 191 202 210 219 231 244 251 258 271 285 291 292 292 298 298 297 300 303 310 324 315 262 291 215 64 144 344 9 34 11 91 86 111 70 47 13 1 15 342 357 84 19 4 7 319 106 74 256 111 284 99 178 110 161 195 272 170 209 229 170 132 151 240 102 226 256 256 241 218 224 223 143 172 185 240 244 241 243 239 233 225 222 219 214
189 192 184 176 188 198 211 219 228 245 260 277 287 290 293 292 294 292 291 290 304 296 310 334 329 265 250 96 90 55 309 349 251 198 70 12 202 69 79 61 54 58 49 81 76 16 356 300 358 89 42 27 121 191 155 116 170 200 169 255 241 199 208 138 188 136 232 112 204 247 260 266 358 131 122 136 156 213 242 248 250 248 241 235 229 227 228 221
191 193 196 203 199 208 222 247 246 259 275 285 292 295 295 295 296 298 293 284 268 305 302 302 239 238 218 86 157 95 350 274 216 67 12 332 131 125 111 94 66 64 66 70 87 49 11 7 162 147 94 31 115 169 154 167 192 188 175 215 220 241 117 134 134 183 234 138 205 200 259 260 269 124 110 117 180 210 238 251 258 255 250 240 235 233 234 236
188 188 195 214 218 225 237 254 268 283 287 294 293 294 293 291 295 298 293 291 313 289 242 243 162 289 284 186 88 216 235 197 143 33 17 310 346 110 109 108 114 109 108 71 69 195 39 45 48 47 118 122 184 193 174 173 195 206 232 223 199 216 178 162 159 127 38 116 185 216 255 309 215 109 143 139 194 211 228 253 258 259 257 247 238 238 239 239
183 186 202 210 221 227 234 246 258 264 291 294 298 286 278 276 283 289 286 288 260 221 243 316 151 198 249 54 299 224 161 98 321 172 15 57 304 132 147 137 127 111 110 136 134 182 59 149 161 210 235 205 195 206 204 211 201 203 206 249 210 213 212 237 102 184 150 237 219 210 245 252 273 259 166 173 187 200 250 265 269 269 263 254 251 244 238 236
190 196 191 201 216 226 233 244 255 270 287 300 295 292 285 283 287 260 215 216 191 221 226 249 271 243 186 323 201 147 48 111 87 23 351 1 290 169 233 143 130 144 149 136 147 221 75 152 220 220 169 208 211 208 212 209 217 204 191 223 213 237 254 279 183 133 215 190 255 236 231 255 264 272 275 255 202 220 252 262 265 265 265 266 259 250 245 239
204 196 197 207 212 219 221 238 251 274 301 301 284 277 268 267 249 254 186 164 179 143 181 180 185 197 247 153 95 110 88 57 224 251 147 154 151 215 109 125 164 162 173 202 122 200 147 128 226 224 205 200 206 217 214 265 346 280 215 216 244 226 211 232 126 124 253 228 231 239 252 254 255 264 263 260 260 255 255 257 260 258 259 259 257 256 252 246
204 202 204 212 220 225 231 239 251 287 332 305 197 203 184 170 170 153 174 221 251 10 344 67 180 78 105 130 120 59 157 211 162 77 117 15 203 172 146 170 141 261 176 208 133 168 345 204 198 211 219 213 212 221 249 45 18 43 7 290 252 259 229 106 97 78 178 278 254 251 256 259 263 268 271 274 274 267 263 260 252 248 247 249 251 252 251 249
199 201 206 206 210 229 235 252 263 333 327 302 288 228 184 181 171 177 167 218 98 26 4 37 29 38 62 112 124 161 132 146 336 139 129 4 300 186 159 179 178 200 184 48 124 99 235 225 217 225 233 326 196 131 128 317 323 282 278 263 248 198 259 75 104 135 141 256 279 272 272 265 265 265 267 268 264 261 257 256 252 249 246 245 244 246 244 245
202 203 196 199 205 220 234 254 207 359 275 283 269 244 331 9 351 353 298 200 197 88 245 53 255 103 29 104 102 334 277 136 172 143 127 233 177 212 154 211 185 213 120 134 129 164 201 217 230 151 96 78 47 229 243 255 255 238 256 251 259 243 218 116 89 172 172 240 266 287 292 282 275 270 268 263 259 260 255 251 253 255 254 250 248 248 249 245
204 202 200 196 199 207 215 230 99 319 293 236 229 252 305 22 344 23 303 289 157 107 214 216 184 167 122 51 182 248 199 173 171 172 175 215 165 266 152 203 203 183 151 188 197 192 220 221 207 117 122 130 116 187 222 227 243 245 223 238 236 68 249 209 111 98 188 230 299 327 302 288 283 266 255 248 245 252 256 256 259 255 255 252 249 248 248 245
206 201 197 196 187 196 205 167 201 242 235 300 288 267 42 357 337 312 282 235 153 165 211 177 265 209 174 169 167 193 209 147 160 168 133 191 181 127 201 201 208 192 204 198 216 219 216 66 40 165 149 191 195 180 201 214 231 221 245 245 255 253 255 312 51 271 232 241 294 277 273 273 270 268 261 242 224 247 252 254 254 249 246 252 262 265 251 250
222 201 192 188 171 170 165 140 232 230 315 275 256 261 129 54 355 353 282 173 233 171 3 296 181 247 150 42 151 205 164 66 357 113 159 204 149 128 210 33 256 212 214 200 227 241 215 78 107 136 171 196 197 192 204 218 243 224 208 231 255 294 310 0 358 341 283 253 138 309 307 263 273 270 269 261 186 218 225 232 240 236 239 236 240 241 237 237
327 201 189 174 160 154 134 226 196 172 199 226 81 98 129 111 11 329 285 236 249 140 117 203 143 177 128 161 140 179 97 208 74 61 151 345 357 248 101 206 228 238 207 187 220 251 302 103 208 142 157 171 213 238 201 207 242 251 161 315 258 264 303 283 293 290 257 276 92 295 306 286 303 287 275 274 270 266 252 227 244 249 251 249 239 227 224 224
4 203 181 166 158 143 162 201 85 151 210 165 84 116 109 97 306 299 233 180 265 158 164 57 210 167 303 154 160 144 210 170 120 110 154 13 195 11 214 175 150 39 33 131 25 224 131 162 151 200 166 180 194 227 182 200 228 235 50 264 66 211 218 265 281 252 275 339 257 179 234 269 284 278 276 283 273 270 265 256 251 246 243 246 252 251 244 238
9 261 180 167 166 174 336 97 152 201 21 37 15 82 126 120 250 243 254 229 241 134 161 188 224 354 267 150 196 198 34 116 152 171 13 84 278 150 249 200 195 187 174 180 226 58 172 167 184 180 193 199 218 285 98 198 228 30 23 346 85 74 83 107 240 272 298 348 290 166 196 243 236 255 276 231 266 259 257 254 245 243 249 248 247 249 248 241
5 16 177 176 176 182 355 272 263 1 29 61 36 74 79 112 269 249 202 233 110 113 343 136 324 177 96 163 135 102 147 330 282 94 118 76 6 308 202 224 218 210 172 206 242 105 19 55 198 197 190 215 117 59 357 200 222 137 169 93 92 95 77 93 289 297 284 281 263 165 185 256 272 229 250 220 240 259 263 265 263 252 159 138 120 121 274 277
2 7 194 179 171 192 272 313 254 45 244 32 112 124 113 273 198 213 155 240 129 184 104 98 205 171 162 156 184 162 172 105 50 130 154 172 158 235 26 329 183 148 178 224 289 64 66 210 352 249 216 328 97 66 34 33 61 139 164 115 109 91 107 197 304 289 293 253 264 169 186 231 290 219 213 200 232 228 240 235 122 105 128 137 125 130 157 148
358 354 345 178 178 173 147 226 178 106 40 11 113 207 208 234 213 194 199 180 14 76 135 156 140 153 165 171 176 175 165 117 140 146 135 159 151 218 155 160 58 182 141 215 240 149 156 106 175 187 56 114 119 87 52 345 143 177 160 170 179 211 187 239 225 120 249 254 62 357 206 214 261 160 182 151 355 354 302 288 152 147 132 142 133 136 144 146
351 341 342 200 150 137 183 239 125 142 87 59 30 111 184 182 286 211 202 74 238 164 180 164 159 174 181 188 171 170 167 150 160 180 164 179 172 182 193 199 161 189 224 207 223 131 208 216 137 104 310 172 160 133 87 108 198 226 173 185 215 229 163 229 182 222 206 248 121 321 317 293 245 231 189 243 235 250 215 247 289 300 297 336 131 152 152 158
346 337 307 240 167 186 187 101 140 131 108 73 66 46 135 196 201 194 219 145 235 130 150 153 167 181 183 187 195 163 162 181 164 198 177 181 190 203 200 211 182 196 231 193 199 145 222 152 162 151 118 235 206 174 141 165 194 194 195 182 193 231 225 242 223 223 256 100 222 52 91 255 272 292 228 222 212 214 214 281 297 281 285 288 276 190 174 168
344 329 318 6 277 212 118 132 139 126 101 74 93 57 40 206 218 201 213 191 162 19 98 128 141 169 180 190 180 155 157 190 164 175 188 174 203 201 202 218 212 212 255 175 203 180 220 211 215 152 223 166 212 223 183 181 175 199 203 195 203 214 222 237 218 228 228 268 99 243 129 245 259 1 19 328 287 305 345 311 291 280 273 280 289 273 229 193
316 294 351 197 280 148 125 121 145 152 114 130 90 152 175 207 226 196 211 163 95 117 97 138 148 160 185 192 52 179 222 173 196 163 192 185 198 213 197 199 206 222 204 234 204 203 217 244 145 177 172 162 193 214 212 178 174 198 215 226 236 232 235 256 325 328 307 346 212 171 231 269 236 15 272 289 305 279 270 264 256 275 288 276 278 256 228 210
301 318 300 249 211 174 143 159 163 146 142 145 137 153 198 199 196 172 213 59 124 153 132 148 156 179 185 194 141 194 37 279 172 190 201 210 212 211 208 199 195 193 193 209 171 219 169 230 108 112 147 177 188 190 203 182 209 169 163 210 208 25 243 252 122 107 59 305 260 220 266 261 274 269 249 238 234 231 215 218 203 226 259 253 253 276 244 163
274 304 249 194 215 166 163 161 156 141 158 172 167 199 193 233 252 201 276 225 291 142 156 160 192 193 187 196 190 189 173 104 162 187 203 183 243 226 218 219 201 196 207 200 213 218 235 186 6 163 184 140 14 330 166 33 350 113 210 209 60 23 1 230 246 160 210 241 260 213 244 274 301 289 79 191 223 250 260 246 235 243 234 231 250 268 284 266
264 269 274 264 224 158 169 165 145 116 80 190 200 212 156 212 199 212 108 145 289 200 194 205 178 200 197 192 192 179 171 192 168 189 221 167 252 188 210 219 206 208 207 211 243 186 187 249 172 269 45 110 69 89 205 110 7 289 248 50 173 204 214 211 243 241 235 233 259 246 251 258 252 259 250 133 158 189 265 267 256 248 238 236 234 243 248 295
248 267 253 227 189 157 161 164 143 145 139 181 214 220 193 222 152 198 182 140 51 31 232 217 243 191 235 208 188 174 165 195 165 191 193 182 224 184 205 191 202 210 211 203 222 199 180 231 185 329 203 137 161 178 206 197 156 297 339 212 339 326 236 199 203 248 242 254 241 258 246 254 238 249 269 270 273 279 281 275 269 281 278 268 269 129 160 207
219 195 237 108 159 150 154 156 146 145 161 199 196 218 177 197 177 182 178 172 159 187 213 287 354 117 222 330 188 172 186 202 176 193 205 161 217 156 216 184 210 196 201 203 217 181 226 161 252 117 318 143 187 197 216 178 168 177 225 220 175 218 25 342 261 218 219 240 242 265 266 247 253 247 252 264 279 298 351 14 353 312 272 260 160 159 184 207
226 251 185 117 164 151 145 146 169 178 193 230 230 217 170 191 171 187 193 196 183 309 178 195 142 185 62 152 269 262 185 205 204 202 202 199 200 221 195 194 198 167 182 197 209 194 212 183 228 136 182 209 226 196 211 202 185 185 192 207 202 187 198 215 241 204 230 223 235 241 255 277 267 180 272 281 298 308 347 346 267 246 244 227 166 200 5 288
203 209 190 149 169 155 151 175 199 196 220 217 215 211 212 113 165 184 187 195 216 197 169 210 198 199 164 249 311 30 101 198 230 234 208 228 202 232 63 295 188 147 165 177 202 202 203 210 223 205 197 207 202 51 2 23 324 233 209 216 207 208 197 201 226 198 160 236 321 282 304 265 259 107 131 279 301 328 34 23 280 272 300 331 0 6 295 241
211 220 66 233 180 171 167 204 195 201 218 223 223 238 198 182 202 178 178 192 205 219 203 208 197 194 203 208 197 180 162 50 208 225 319 272 278 251 90 157 149 174 184 179 187 208 68 221 216 239 212 94 92 119 74 319 292 267 252 249 222 219 212 223 236 220 206 187 215 232 242 270 276 120 312 85 84 288 281 228 248 289 307 326 335 326 320 316
211 226 162 117 209 199 186 197 204 208 218 226 224 230 204 216 201 188 194 182 194 185 211 203 206 211 217 190 177 201 166 229 205 231 264 239 265 262 194 149 163 186 194 184 211 153 190 190 225 219 228 213 191 159 213 149 223 230 224 214 228 245 228 231 54 53 254 218 222 226 242 242 270 114 224 136 162 203 215 223 216 257 307 305 308 320 323 323
213 228 261 171 135 224 208 206 214 207 214 214 205 221 218 222 227 210 194 199 192 210 194 214 214 201 219 183 197 200 179 196 226 212 234 237 246 64 186 174 180 205 194 15 80 182 194 191 194 207 213 218 214 207 213 200 196 223 246 255 224 214 220 179 223 201 242 233 240 234 244 253 268 260 121 197 221 224 228 240 193 221 256 281 292 306 329 329
196 201 194 215 180 31 262 285 296 223 210 210 214 223 221 222 196 210 215 220 193 202 208 217 209 215 214 205 205 201 201 201 212 195 201 232 241 114 208 184 187 197 165 127 135 118 163 240 235 225 232 234 236 58 14 132 155 192 203 213 220 215 218 228 243 237 231 238 244 241 253 266 264 267 271 261 182 231 236 235 235 237 245 245 261 291 311 297
196 227 171 189 188 235 242 231 230 236 221 193 216 202 218 222 216 206 201 227 208 202 197 210 194 200 212 211 210 212 213 211 211 230 215 222 229 211 94 167 258 246 145 129 149 76 68 272 240 252 257 266 277 269 269 136 184 206 214 213 214 211 202 208 212 227 228 248 254 241 238 245 259 269 268 269 271 270 258 253 248 230 216 209 289 298 287 279
220 215 224 196 199 192 200 222 216 219 225 205 214 196 214 212 214 218 188 220 206 206 202 203 208 209 203 206 208 220 214 223 214 219 229 231 227 147 162 120 181 145 147 179 159 142 148 233 239 232 255 261 266 272 280 280 261 253 238 223 212 210 207 213 225 234 230 230 244 251 250 247 254 259 264 265 270 269 271 269 258 262 260 274 239 240 251 248
234 235 217 212 228 218 218 205 196 211 213 212 221 216 211 207 211 212 205 195 217 214 208 217 210 209 211 212 217 227 218 219 221 227 227 217 225 202 176 189 187 111 171 126 165 165 161 224 231 195 232 245 250 251 250 254 262 260 255 251 241 208 203 208 222 226 228 236 245 255 262 261 259 263 265 272 275 273 274 281 273 263 257 261 262 265 268 279
202 208 198 222 249 246 216 214 197 198 215 208 218 217 218 212 214 207 206 197 193 212 204 224 221 213 218 221 222 226 220 223 224 228 220 232 239 216 227 206 130 5 189 190 168 309 206 230 208 203 225 240 242 245 244 235 239 249 250 248 249 246 216 208 220 226 230 239 243 247 252 260 257 255 272 271 266 270 271 261 245 257 265 267 261 255 261 262
232 218 259 207 212 224 226 210 197 196 200 203 218 220 218 219 221 209 210 203 212 203 200 216 222 225 217 220 222 229 231 237 238 244 255 245 249 226 222 188 195 174 184 164 15 18 161 275 29 175 222 244 243 241 244 242 237 242 246 242 241 236 238 223 220 216 218 228 232 238 248 254 263 264 257 268 270 264 261 258 263 269 270 264 257 253 254 260
228 324 280 240 224 200 208 209 213 198 210 201 207 212 210 214 220 213 224 208 222 232 218 211 218 225 230 225 228 229 235 247 288 5 27 26 338 337 322 327 340 235 173 196 171 160 175 193 220 186 231 240 252 229 239 243 249 249 240 234 230 235 237 243 242 230 227 226 234 235 237 245 258 268 269 266 265 257 252 254 264 258 259 263 262 255 253 254